User: anonymous   Login
Location: Unspecified
(0.0000°N, 0.0000°E)
Time: 14:22:51
(UTC+00:00)
Language:

BREEZE-M R/B - Orbit

View from above orbital plane
View from above orbital plane
View from above satellite
View from above satellite

Ground track
Ground track

The orbit data is extracted from the following two-line orbital elements,

1 39173U 13026B   21211.47642981 -.00000004  00000-0  00000-0 0  9998
2 39173  24.2573 106.9906 7719134 297.6435   6.2224  1.10516276 32546
Epoch (UTC): 30 July 2021 11:26:03
Eccentricity: 0.7719134
inclination: 24.2573°
perigee height: 2635 km
apogee height: 63642 km
right ascension of ascending node: 106.9906°
argument of perigee: 297.6435°
revolutions per day: 1.10516276
mean anomaly at epoch: 6.2224°
orbit number at epoch: 3254

The dashed part of the orbit path shows where the satellite is in the earth's shadow,  

DLR